Location: Peterborough
(44.3091°N, 78.3197°W)
Time: 12:56:19
(UTC-04:00)

Transit 2A Rocket - Pass Details

Date: 24 March 2023
Orbit: 584 x 914 km, 66.7° (Epoch: 02 June)

Event Time Altitude Azimuth Distance (km) Brightness Sun altitude
Rises 22:02:56 0° 323° (NW) 3,557 9.5 -26.6°
Reaches altitude 10° 22:05:34 10° 318° (NW) 2,607 8.7 -27.0°
Maximum altitude 22:11:24 48° 246° (WSW) 1,147 6.0 -27.9°
Enters shadow 22:12:43 41° 209° (SSW) 1,256 6.0 -28.1°
